Overview Statistics Trail Chart Weather Telemetry Raw packets
 

This is the latest recevied weather packets stored in our database for station/object KD0MAC. If no packets are shown the sender has not sent any weather packets the latest 10 day(s).

<< 108 109 110 111 112 113 114 >>
Time Temp. Humidity Pressure Rain* Wind** Luminosity Snow
1787872809 31.67° C 44% 1017.6 hPa 0 mm - 178 W/m² -
1787872510 31.67° C 45% 1017.6 hPa 0 mm - 192 W/m² -
1787872210 32.22° C 44% 1017.6 hPa 0 mm - 194 W/m² -
1787871908 32.22° C 44% 1017.6 hPa 0 mm - 205 W/m² -
1787871609 32.22° C 43% 1017.9 hPa 0 mm - 219 W/m² -
1787871310 32.22° C 44% 1017.9 hPa 0 mm - 228 W/m² -
1787871009 32.22° C 42% 1017.9 hPa 0 mm - 243 W/m² -
1787870709 32.22° C 45% 1018.3 hPa 0 mm - 253 W/m² -
1787870409 32.22° C 43% 1017.9 hPa 0 mm - 264 W/m² -
1787870109 32.22° C 44% 1018.3 hPa 0 mm - 278 W/m² -
1787868013 32.78° C 44% 1018.6 hPa 0 mm - 345 W/m² -
1787867709 32.78° C 43% 1018.6 hPa 0 mm - 358 W/m² -
1787867408 33.33° C 43% 1018.6 hPa 0 mm - 377 W/m² -
1787867109 33.33° C 44% 1018.6 hPa 0 mm - 377 W/m² -
1787866809 33.33° C 43% 1018.6 hPa 0 mm - 414 W/m² -
1787866509 33.33° C 46% 1018.6 hPa 0 mm - 411 W/m² -
1787866208 32.78° C 44% 1018.6 hPa 0 mm - 427 W/m² -
1787865909 33.33° C 45% 1019 hPa 0 mm - 445 W/m² -
1787865611 33.33° C 43% 1019 hPa 0 mm - 440 W/m² -
1787865311 33.33° C 45% 1019 hPa 0 mm - 462 W/m² -
1787865008 33.33° C 44% 1019 hPa 0 mm - 458 W/m² -
1787864709 33.33° C 44% 1019 hPa 0 mm - 457 W/m² -
1787864409 32.22° C 45% 1019.3 hPa 0 mm - 217 W/m² -
1787863808 33.33° C 43% 1019.3 hPa 0 mm - 485 W/m² -
1787863509 33.33° C 43% 1019.3 hPa 0 mm - 507 W/m² -

* Rain latest hour (hover to see other rain measurements)
** Current wind speed in m/s (hover to see current wind gust speed)